Date String (YYYY-MM-DD hh:mm:ss) UTC,Instrument flags,Ambient pressure (hPa),Sample flow (lpm),Bypass flow (lpm),Sample temperature (°C),Ambient temperature (°C),ASC tube jacket temperature (°C),LED temperature (°C),Box temperature (°C),Sample RH (%),Span deviation,Mass concentration (μg/m³),Mass concentration (μg/m³),Mass concentration (μg/m³)
DateTimeUTC,F1_M11,P_M11,Q1_M11,Q2_M11,T1_M11,T2_M11,T3_M11,T4_M11,T5_M11,U1_M11,ZSPAN_M11,X0_M11,X2_M11,X1_M11
2021-09-30 16:00:00,,0834.7,5.00,0.00,27.0,26.2,00.0,36.2,28.8,22.7,-001.4,0010.28,0005.91,0005.58
2021-09-30 16:01:00,,0834.7,5.00,0.00,27.0,26.1,00.0,36.2,28.7,22.7,-001.2,0010.38,0005.91,0005.57
2021-09-30 16:02:00,,0834.7,5.00,0.00,27.0,26.1,00.0,36.1,28.7,22.3,-000.7,0010.54,0005.87,0005.55
2021-09-30 16:03:00,,0834.7,5.00,0.00,26.9,26.1,00.0,36.1,28.7,22.3,-000.5,0010.79,0005.85,0005.52
2021-09-30 16:04:00,,0834.7,5.00,0.00,26.9,26.1,00.0,36.1,28.7,22.1,-000.5,0010.84,0005.84,0005.49
2021-09-30 16:05:00,,0834.7,5.00,0.00,26.9,26.0,00.0,36.1,28.6,22.0,-000.7,0011.44,0005.80,0005.46
2021-09-30 16:06:00,,0834.7,5.00,0.00,26.9,26.0,00.0,36.1,28.6,22.0,-001.3,0011.37,0005.79,0005.43
2021-09-30 16:07:00,,0834.7,5.01,0.00,26.9,26.0,00.0,36.1,28.6,22.4,-001.2,0011.24,0005.77,0005.42
2021-09-30 16:08:00,,0834.6,5.01,0.00,26.9,26.1,00.0,36.1,28.7,22.4,-000.7,0010.71,0005.73,0005.39
2021-09-30 16:09:00,,0834.7,4.99,0.00,26.9,26.1,00.0,36.0,28.7,22.3,-000.2,0010.71,0005.71,0005.37
2021-09-30 16:10:00,,0834.7,5.00,0.00,26.9,26.1,00.0,36.0,28.7,22.1,0000.5,0010.60,0005.69,0005.35
2021-09-30 16:11:00,,0834.7,5.01,0.00,26.9,26.1,00.0,36.0,28.7,22.2,0000.1,0010.57,0005.73,0005.35
2021-09-30 16:12:00,,0834.7,4.99,0.00,26.9,26.1,00.0,36.0,28.7,22.4,-000.1,0010.03,0005.71,0005.34
2021-09-30 16:13:00,,0834.7,4.99,0.00,26.9,26.1,00.0,36.0,28.7,22.2,-000.3,0009.62,0005.69,0005.33
2021-09-30 16:14:00,,0834.7,5.01,0.00,26.8,26.0,00.0,36.0,28.6,21.8,-000.5,0009.24,0005.68,0005.33
2021-09-30 16:15:00,,0834.7,5.00,0.00,26.8,26.0,00.0,36.0,28.6,21.8,-000.6,0009.18,0005.68,0005.33
2021-09-30 16:16:00,,0834.7,4.99,0.00,26.8,26.0,00.0,36.0,28.6,22.1,-000.6,0008.60,0005.70,0005.33
2021-09-30 16:17:00,,0834.7,5.00,0.00,26.8,26.0,00.0,35.9,28.6,22.4,-000.5,0008.60,0005.71,0005.34
2021-09-30 16:18:00,,0834.7,4.99,0.00,26.8,26.1,00.0,35.9,28.6,22.1,-000.4,0008.63,0005.71,0005.33
2021-09-30 16:19:00,,0834.7,4.99,0.00,26.8,26.0,00.0,35.9,28.6,22.1,-000.5,0008.67,0005.71,0005.33
2021-09-30 16:20:00,,0834.7,5.01,0.00,26.8,26.0,00.0,35.9,28.6,22.0,-000.9,0008.68,0005.72,0005.34
2021-09-30 16:21:00,,0834.7,4.99,0.00,26.8,26.0,00.0,35.9,28.5,22.2,-001.4,0008.83,0005.75,0005.34
2021-09-30 16:22:00,,0834.7,5.00,0.00,26.7,25.9,00.0,35.9,28.5,21.9,-001.2,0008.86,0005.74,0005.35
2021-09-30 16:23:00,,0834.7,5.01,0.00,26.7,25.9,00.0,35.9,28.5,21.8,-001.1,0008.95,0005.78,0005.37
2021-09-30 16:24:00,,0834.7,4.99,0.00,26.7,25.9,00.0,35.9,28.5,21.9,-001.1,0009.21,0005.80,0005.38
2021-09-30 16:25:00,,0834.7,5.01,0.00,26.7,25.9,00.0,35.9,28.5,22.3,-000.9,0009.42,0005.82,0005.38
2021-09-30 16:26:00,,0834.7,4.99,0.00,26.7,26.0,00.0,35.9,28.5,22.2,-000.6,0009.56,0005.86,0005.37
2021-09-30 16:27:00,,0834.7,5.00,0.00,26.7,26.0,00.0,35.8,28.5,22.2,0000.2,0009.99,0005.88,0005.37
2021-09-30 16:28:00,,0834.7,5.01,0.00,26.7,26.0,00.0,35.8,28.5,22.1,0000.5,0010.05,0005.89,0005.36
2021-09-30 16:29:00,,0834.7,4.99,0.00,26.7,26.0,00.0,35.8,28.6,22.1,0000.6,0009.97,0005.87,0005.36
2021-09-30 16:30:00,,0834.7,5.00,0.00,26.7,26.1,00.0,35.8,28.6,22.0,0001.0,0010.01,0005.84,0005.34
2021-09-30 16:31:00,,0834.7,5.00,0.00,26.8,26.1,00.0,35.8,28.6,22.0,0001.7,0010.05,0005.81,0005.32
2021-09-30 16:32:00,,0834.7,4.99,0.00,26.8,26.1,00.0,35.8,28.6,22.5,0002.0,0010.38,0005.81,0005.32
2021-09-30 16:33:00,,0834.7,5.01,0.00,26.8,26.1,00.0,35.8,28.6,22.1,0002.3,0010.53,0005.81,0005.30
2021-09-30 16:34:00,,0834.7,5.00,0.00,26.8,26.1,00.0,35.9,28.6,22.2,0002.4,0010.48,0005.78,0005.26
2021-09-30 16:35:00,,0834.7,4.98,0.00,26.8,26.2,00.0,35.9,28.7,22.2,0002.5,0010.90,0005.76,0005.24
2021-09-30 16:36:00,,0834.7,5.00,0.00,26.8,26.2,00.0,35.9,28.7,22.0,0002.3,0010.83,0005.75,0005.22
2021-09-30 16:37:00,,0834.7,5.01,0.00,26.8,26.2,00.0,35.9,28.7,21.8,0002.2,0010.75,0005.70,0005.22
2021-09-30 16:38:00,,0834.7,5.00,0.00,26.9,26.2,00.0,35.9,28.7,21.7,0001.6,0010.26,0005.67,0005.22
2021-09-30 16:39:00,,0834.7,4.99,0.00,26.9,26.2,00.0,35.9,28.7,21.9,0001.3,0010.46,0005.65,0005.21
2021-09-30 16:40:00,,0834.7,5.01,0.00,26.9,26.2,00.0,35.9,28.7,22.0,0001.2,0011.16,0005.68,0005.20
2021-09-30 16:41:00,,0834.7,4.99,0.00,26.9,26.2,00.0,35.9,28.8,21.9,0001.0,0011.37,0005.69,0005.20
2021-09-30 16:42:00,,0834.7,5.01,0.00,26.9,26.2,00.0,35.9,28.8,21.8,0000.6,0011.27,0005.70,0005.19
2021-09-30 16:43:00,,0834.7,4.99,0.00,26.9,26.2,00.0,35.9,28.8,21.4,0000.5,0010.89,0005.68,0005.18
2021-09-30 16:44:00,,0834.7,5.01,0.00,26.9,26.2,00.0,35.9,28.7,21.4,0000.2,0010.66,0005.67,0005.18
2021-09-30 16:45:00,,0834.7,5.00,0.00,26.9,26.2,00.0,35.9,28.7,21.4,-000.1,0010.71,0005.66,0005.18
2021-09-30 16:46:00,,0834.7,4.99,0.00,26.9,26.2,00.0,35.9,28.7,21.9,-000.2,0010.07,0005.66,0005.18
2021-09-30 16:47:00,,0834.7,5.01,0.00,26.9,26.2,00.0,35.9,28.8,22.2,-000.0,0009.94,0005.65,0005.19
2021-09-30 16:48:00,,0834.7,5.00,0.00,26.9,26.3,00.0,35.9,28.8,22.3,-000.1,0010.59,0005.65,0005.18
2021-09-30 16:49:00,,0834.7,5.00,0.00,26.9,26.3,00.0,35.9,28.8,22.2,0000.1,0011.07,0005.71,0005.18
2021-09-30 16:50:00,,0834.7,5.00,0.00,27.0,26.3,00.0,36.0,28.8,22.0,0000.3,0010.99,0005.72,0005.20
2021-09-30 16:51:00,,0834.7,5.00,0.00,27.0,26.3,00.0,36.0,28.8,21.6,0000.2,0011.10,0005.72,0005.20
2021-09-30 16:52:00,,0834.7,5.01,0.00,27.0,26.3,00.0,36.0,28.8,21.6,-000.0,0011.06,0005.76,0005.22
2021-09-30 16:53:00,,0834.7,5.00,0.00,27.0,26.3,00.0,36.0,28.8,21.5,0000.2,0011.30,0005.80,0005.23
2021-09-30 16:54:00,,0834.7,4.99,0.00,27.0,26.3,00.0,36.0,28.8,21.7,0000.1,0011.52,0005.80,0005.24
2021-09-30 16:55:00,,0834.8,5.01,0.00,27.0,26.3,00.0,36.0,28.8,21.5,0000.2,0011.47,0005.80,0005.26
2021-09-30 16:56:00,,0834.8,4.99,0.00,27.0,26.3,00.0,36.0,28.8,21.5,0000.6,0011.37,0005.82,0005.29
2021-09-30 16:57:00,,0834.8,5.00,0.00,27.0,26.3,00.0,36.0,28.8,21.6,0000.8,0011.36,0005.83,0005.30
2021-09-30 16:58:00,,0834.7,5.01,0.00,26.9,26.3,00.0,36.0,28.8,21.2,0000.6,0011.47,0005.85,0005.32
2021-09-30 16:59:00,,0834.8,5.00,0.00,26.9,26.2,00.0,36.0,28.8,21.2,0001.0,0010.80,0005.85,0005.34
